Location: Newark
(34.9500°N, 139.9667°E)
Time: 00:40:57
(UTC+00:00)

S-56A Canister/Altair - Visible Passes

Search period start: 22 January 2021 00:00
Search period end: 01 February 2021 00:00
Orbit: 633 x 2499 km, 38.9° (Epoch: 21 January)

Date Brightness Start Highest point End Pass type
(mag) Time Alt. Az. Time Alt. Az. Time Alt. Az.
22 Jan 7.6 19:54:34 48° NW 19:55:30 56° N 20:01:23 10° E visible
23 Jan 8.0 19:23:41 48° NE 19:23:41 48° NE 19:28:17 10° E visible
24 Jan 9.2 18:52:47 26° ENE 18:52:47 26° ENE 18:55:19 10° ENE visible
24 Jan 7.7 20:50:13 15° WNW 20:54:18 88° NNE 21:01:02 10° ESE visible
25 Jan 10.2 18:21:54 13° ENE 18:21:54 13° ENE 18:22:27 10° ENE visible
25 Jan 7.5 20:19:20 30° WNW 20:21:42 80° NNE 20:27:52 10° ESE visible
26 Jan 7.3 19:48:27 61° NW 19:49:08 72° NNE 19:54:47 10° E visible
27 Jan 8.0 19:17:35 50° ENE 19:17:35 50° ENE 19:21:47 10° E visible
27 Jan 8.4 21:15:38 10° W 21:20:18 44° SSW 21:26:35 10° SE visible
28 Jan 9.4 18:46:45 24° E 18:46:45 24° E 18:48:52 10° E visible
28 Jan 8.0 20:44:10 17° W 20:47:42 49° SSW 20:53:37 10° SE visible
29 Jan 10.4 18:15:55 11° E 18:15:55 11° E 18:16:03 10° E visible
29 Jan 7.6 20:13:21 34° W 20:15:09 56° SSW 20:20:43 10° SE visible
30 Jan 7.2 19:42:33 64° SSW 19:42:37 64° SSW 19:47:51 10° ESE visible
31 Jan 8.4 19:11:47 39° SE 19:11:47 39° SE 19:15:04 10° ESE visible
31 Jan 9.3 21:10:21 10° WSW 21:13:36 18° SSW 21:17:24 10° S visible
